EW7304 Weather Reports


Display with metric or nautical units.
time (UTC)temp
F
wind
direction
speed
MPH
gust
MPH
rain 1hr
in
rain 24hr
in
rain mn
in
humidity
%
barometer
mb
20260507181559 71 1 0.0 3.0 0.00 0.00 0.00 81 1015.1
20260507180055 69 314 0.0 3.0 0.00 0.00 0.00 83 1015.5
20260507174602 68 79 0.0 2.0 0.00 0.00 0.00 83 1015.7
20260507173100 68 328 0.0 3.0 0.00 0.00 0.00 84 1015.8
20260507171551 67 319 0.0 3.0 0.00 0.00 0.00 84 1016.0
20260507170050 67 355 1.0 3.0 0.00 0.00 0.00 84 1015.9
20260507164618 66 316 0.0 5.0 0.00 0.00 0.00 85 1015.6
20260507163054 66 112 0.0 4.0 0.00 0.00 0.00 86 1015.9
20260507161555 65 22 0.0 5.0 0.00 0.00 0.00 86 1015.8
20260507160148 65 82 0.0 2.0 0.00 0.00 0.00 87 1015.6
20260507154548 65 354 0.0 2.0 0.00 0.00 0.00 87 1016.1
20260507153045 64 337 0.0 4.0 0.00 0.00 0.00 88 1016.0
20260507151547 65 20 0.0 2.0 0.00 0.00 0.00 87 1015.8
20260507150046 65 80 0.0 2.0 0.00 0.00 0.00 87 1015.7
20260507144542 65 311 0.0 2.0 0.00 0.00 0.00 87 1015.7
20260507143045 65 360 0.0 6.0 0.00 0.00 0.00 86 1015.4
20260507141540 66 4 0.0 4.0 0.00 0.00 0.00 86 1015.4
20260507140043 65 295 0.0 1.0 0.00 0.00 0.00 88 1015.2
20260507134540 65 98 0.0 1.0 0.00 0.00 0.00 88 1015.8
20260507133041 65 60 0.0 2.0 0.00 0.00 0.00 88 1015.8
20260507131539 66 94 0.0 4.0 0.00 0.00 0.00 88 1015.5
20260507130039 66 8 0.0 1.0 0.00 0.00 0.00 88 1015.4
20260507124538 66 6 0.0 2.0 0.00 0.00 0.00 87 1014.9
20260507123028 66 76 0.0 3.0 0.00 0.00 0.00 88 1014.7
20260507121525 67 317 0.0 1.0 0.00 0.00 0.00 88 1014.4
20260507120023 67 63 0.0 3.0 0.00 0.00 0.00 88 1014.2
20260507114527 67 27 0.0 2.0 0.00 0.00 0.00 88 1014.0
20260507113036 67 2 0.0 2.0 0.00 0.00 0.00 89 1013.5
20260507111519 68 93 0.0 1.0 0.00 0.00 0.00 89 1013.4
20260507110017 68 346 0.0 3.0 0.00 0.00 0.00 88 1013.5
20260507104514 68 358 0.0 3.0 0.00 0.00 0.00 88 1013.4
20260507103017 68 354 0.0 2.0 0.00 0.00 0.00 88 1013.4
20260507101610 68 10 0.0 1.0 0.00 0.00 0.00 89 1013.0
20260507100012 69 358 0.0 2.0 0.00 0.00 0.00 89 1012.7
20260507094507 69 98 0.0 1.0 0.00 0.00 0.00 88 1012.8
20260507093005 69 352 0.0 2.0 0.00 0.00 0.00 88 1012.7
20260507091506 70 7 0.0 2.0 0.00 0.00 0.00 88 1012.7
20260507090002 70 352 0.0 2.0 0.00 0.00 0.00 87 1012.6
20260507084611 70 70 0.0 2.0 0.00 0.00 0.00 88 1012.3
20260507083059 71 11 0.0 1.0 0.00 0.00 0.00 88 1012.2
20260507081601 71 355 0.0 1.0 0.00 0.00 0.00 87 1012.3
20260507080058 71 342 0.0 1.0 0.00 0.00 0.00 87 1012.4
20260507074559 71 319 0.0 3.0 0.00 0.00 0.00 87 1012.4
20260507073057 71 323 0.0 2.0 0.00 0.00 0.00 87 1012.5
20260507071552 72 340 0.0 1.0 0.00 0.00 0.00 87 1012.6
20260507070052 72 8 0.0 2.0 0.00 0.00 0.00 87 1012.7
20260507064552 72 318 0.0 1.0 0.00 0.00 0.00 87 1012.5
20260507063049 73 331 0.0 1.0 0.00 0.00 0.00 87 1012.6
20260507061546 73 11 0.0 1.0 0.00 0.00 0.00 88 1012.5
20260507060057 73 328 0.0 1.0 0.00 0.00 0.00 88 1012.2
20260507054543 73 313 0.0 1.0 0.00 0.00 0.00 88 1012.1
20260507053042 73 334 0.0 1.0 0.00 0.00 0.00 88 1012.4
20260507051540 74 347 0.0 2.0 0.00 0.00 0.00 88 1012.2
20260507050041 74 25 0.0 1.0 0.00 0.00 0.00 88 1012.2
20260507044536 75 355 0.0 2.0 0.00 0.00 0.00 88 1012.3
20260507043043 75 325 0.0 2.0 0.00 0.00 0.00 89 1012.4
20260507041532 76 344 0.0 4.0 0.00 0.00 0.00 88 1012.2
20260507040030 77 321 0.0 6.0 0.00 0.00 0.00 89 1011.9
20260507034533 78 224 0.0 0.0 0.00 0.00 0.00 94 1011.5
20260507033026 78 215 0.0 0.0 0.00 0.00 0.00 94 1011.4
20260507031523 78 205 0.0 0.0 0.00 0.00 0.00 93 1011.1
20260507030022 78 223 0.0 0.0 0.00 0.00 0.00 93 1010.8
20260507024523 78 224 0.0 0.0 0.00 0.00 0.00 93 1010.6
20260507023022 78 224 0.0 0.0 0.00 0.00 0.00 92 1010.5
20260507021523 79 238 0.0 1.0 0.00 0.00 0.00 92 1010.3
20260507020041 79 223 0.0 1.0 0.00 0.00 0.00 91 1010.1
20260507014520 79 252 0.0 3.0 0.00 0.00 0.00 91 1009.7
20260507013024 80 209 0.0 1.0 0.00 0.00 0.00 90 1009.6
20260507011533 80 213 0.0 2.0 0.00 0.00 0.00 90 1009.3
20260507010019 80 131 0.0 0.0 0.00 0.00 0.00 89 1009.2
20260507004518 80 224 0.0 1.0 0.00 0.00 0.00 89 1009.2
20260507003017 81 217 0.0 1.0 0.00 0.00 0.00 88 1009.0
20260507001544 81 212 0.0 1.0 0.00 0.00 0.00 87 1008.8
20260507000017 81 158 0.0 1.0 0.00 0.00 0.00 87 1008.9
20260506234517 82 231 0.0 2.0 0.00 0.00 0.00 86 1008.9
20260506233018 82 216 0.0 1.0 0.00 0.00 0.00 85 1008.7
20260506231517 82 205 0.0 2.0 0.00 0.00 0.00 85 1008.7
20260506230014 82 221 0.0 6.0 0.00 0.00 0.00 85 1008.5
20260506224516 82 224 0.0 1.0 0.00 0.00 0.00 85 1008.3
20260506223012 83 231 0.0 1.0 0.00 0.00 0.00 85 1008.4
20260506221512 83 212 0.0 3.0 0.00 0.00 0.00 84 1008.5
20260506220012 84 238 0.0 2.0 0.00 0.00 0.00 83 1008.5
20260506214510 84 168 0.0 3.0 0.00 0.00 0.00 82 1008.5
20260506213010 85 172 0.0 2.0 0.00 0.00 0.00 82 1008.6
20260506211509 85 184 0.0 3.0 0.00 0.00 0.00 81 1008.6
20260506210008 84 65 0.0 3.0 0.00 0.00 0.00 82 1008.6
20260506204506 85 219 1.0 9.0 0.00 0.00 0.00 82 1008.6
20260506203009 84 267 0.0 3.0 0.00 0.00 0.00 83 1008.8
20260506201505 83 150 0.0 5.0 0.00 0.00 0.00 85 1009.1
20260506200004 83 134 0.0 1.0 0.00 0.00 0.00 85 1009.3
20260506194518 84 214 0.0 2.0 0.00 0.00 0.00 84 1009.4
20260506193002 84 210 0.0 4.0 0.00 0.00 0.00 83 1009.5
20260506191601 84 236 0.0 2.0 0.00 0.00 0.00 83 1009.6
20260506190100 84 202 0.0 3.0 0.00 0.00 0.00 84 1009.8
20260506184558 84 210 0.0 3.0 0.00 0.00 0.00 84 1010.0
20260506184521 84 135 0.0 3.0 0.00 0.00 0.00 84 1010.0
20260506183107 84 261 0.0 3.0 0.00 0.00 0.00 83 1010.0